Regional Weather Roundup
Issued by NWS

Home | Current Version | Previous Version | Text Only | Print | Product List | Glossary Off
Versions: 1 2 3 4 5 6 7 8 9 10 11 12 13 14 15 16 17 18 19 20 21 22 23 24 25 26 27 28 29 30 31 32 33 34 35 36 37 38 39 40 41 42 43 44 45 46 47 48 49 50

000
ASUS43 KMPX 231201
RWRMN
WEATHER ROUNDUP FOR MINNESOTA
NATIONAL WEATHER SERVICE TWIN CITIES/CHANHASSEN MN
600 AM CST MON JAN 23 2017


NOTE: "FAIR" INDICATES FEW OR NO CLOUDS BELOW 12,000 FEET WITH NO
SIGNIFICANT WEATHER AND/OR OBSTRUCTIONS TO VISIBILITY. N/A MEANS
CURRENT SKY AND/OR WEATHER CONDITIONS ARE NOT AVAILABLE.

MNZ060>063-068>070-231300-
   Twin Cities Metro

CITY           SKY/WX    TMP DP  RH WIND       PRES   REMARKS
TWIN CITIES    DRIZZLE   33  31  92 W6        29.81S FOG     WCI  28
6HR MIN TEMP:  33; 6HR MAX TEMP:  34; 6HR PCP: TRACE;

ST PAUL        CLOUDY    34  34 100 W6        29.81F FOG     WCI  29
CRYSTAL        CLOUDY    33  31  92 W3        29.79S FOG
BLAINE         CLOUDY    36  36 100 W6        29.80S FOG
LAKEVILLE      CLOUDY    30  30 100 W7        29.81R FOG     WCI  23
EDEN PRAIRIE   CLOUDY    33  32  96 W3        29.80S FOG
6HR MIN TEMP:  33; 6HR MAX TEMP:  33;

SOUTH ST PAUL  CLOUDY    34  34  99 W3        29.81S FOG
LAKE ELMO      CLOUDY    34  34 100 W3        29.80F FOG
$$
MNZ001>005-007-008-013>017-022>024-027-028-231300-
   Northwest Minnesota

CITY           SKY/WX    TMP DP  RH WIND       PRES   REMARKS
BEMIDJI        CLOUDY    31  29  94 SW3       29.77S
HALLOCK        CLOUDY    32  30  93 SW6       29.75S WCI  26
ROSEAU         MOCLDY    32  27  80 SW5       29.75R WCI  27
WARROAD        CLOUDY    32  28  86 SW3       29.75R FOG
THIEF RVR FALL CLOUDY    30  28  92 W8        29.78R WCI  22
CROOKSTON      CLOUDY    30  28  93 W8        29.80R WCI  23
FOSSTON        CLOUDY    28  28 100 SW7       29.78S WCI  21
DETROIT LAKES  MOCLDY    32  30  93 W5        29.80S WCI  27
MOORHEAD       CLOUDY    34  27  75 W5        29.82S WCI  30
PARK RAPIDS    CLOUDY    31  26  82 NW10      29.78R WCI  22
MAHNOMEN       CLOUDY    30  28  94 W6        29.78S WCI  24
$$
MNZ006-009>011-018-025>026-231300-
   North Central Minnesota

CITY           SKY/WX    TMP DP  RH WIND       PRES   REMARKS
BAUDETTE       CLOUDY    32  30  92 S6        29.74S WCI  26
FLAG ISLAND    LGT SNOW  32  30  93 CALM      29.72S
INTL FALLS     FOG       33  32  96 SW5       29.74S VSB 1/2 WCI  29
6HR MIN TEMP:  33; 6HR MAX TEMP:  34;

WASKISH        CLOUDY    32  30  93 SW7       29.76S FOG     WCI  26
BIG FORK       LGT SNOW  34  32  93 CALM      29.75F
LONGVILLE      CLOUDY    30  30 100 W5        29.77S FOG     WCI  25
GRAND RAPIDS   FOG       33  32  96 W5        29.77F VSB 3/4 WCI  29
CRANE LAKE     LGT RAIN  30  30 100 CALM      29.76S
ORR            CLOUDY    32  30  93 CALM      29.72S FOG
COOK           CLOUDY    34  34 100 CALM      29.75S
WALKER         CLOUDY    30  29  97 W5        29.78R FOG     WCI  25
$$
MNZ012-019>021-037-231300-
   Northeast Minnesota

CITY           SKY/WX    TMP DP  RH WIND       PRES   REMARKS
DULUTH         DRIZZLE   34  34 100 NW7       29.74S FOG     WCI  28
6HR MIN TEMP:  34; 6HR MAX TEMP:  35; 6HR PCP: TRACE;

ELY            FOG       32  32 100 CALM      29.73F VSB 1
HIBBING        CLOUDY    32  32 100 CALM      29.74F
EVELETH        CLOUDY    34  34  99 W3        29.75S FOG
DULUTH HARBOR  CLOUDY    36  34  93 SW5       29.77S
TWO HARBORS    CLOUDY    37  34  87 CALM      29.73S
SILVER BAY     CLOUDY    36  36 100 CALM      29.72F
GRAND MARAIS     N/A     35  33  92 CALM      29.74F
G MARAIS ARPRT CLOUDY    30  27  86 CALM      29.70F
$$
MNZ029>031-032-039>041-046>048-054>057-064-231300-
   West Central Minnesota

CITY           SKY/WX    TMP DP  RH WIND       PRES   REMARKS
FERGUS FALLS   CLOUDY    30  30 100 NW6       29.86S WCI  24
WHEATON        CLOUDY    37  36  93 W6        29.85S
MORRIS         CLOUDY    34  30  86 NW10      29.81F WCI  26
ALEXANDRIA     CLOUDY    31  28  89 NW8       29.81R WCI  23
ELBOW LAKE     CLOUDY    31  29  92 NW6       29.82S FOG     WCI  26
WADENA         CLOUDY    28  28 100 CALM      29.79S
GLENWOOD       CLOUDY    30  28  93 NW15      29.81S WCI  19
APPLETON       CLOUDY    34  28  80 NW7       29.84S WCI  28
ORTONVILLE     CLOUDY    32  28  86 CALM      29.82F
MADISON        CLOUDY    36  34  93 NW7       29.83F
WILLMAR        CLOUDY    34  30  86 NW7       29.83S WCI  28
$$
MNZ033>034-036-042>043-049>051-058-059-231300-
   Central Minnesota

CITY           SKY/WX    TMP DP  RH WIND       PRES   REMARKS
ST CLOUD       CLOUDY    32  31  96 W7        29.80S FOG     WCI  26
6HR MIN TEMP:  32; 6HR MAX TEMP:  33;

SAUK CENTRE    CLOUDY    31  29  91 NW8       29.81S WCI  23
PAYNESVILLE    CLOUDY    32  32 100 NW7       29.81S WCI  26
AITKIN         CLOUDY    36  30  80 W3        29.76S FOG
PINE RIVER     CLOUDY    30  30 100 W3        29.81F FOG
BRAINERD       FOG       32  32 100 W6        29.78S VSB 3/4 WCI  26
STAPLES        CLOUDY    28  28 100 W6        29.79S WCI  22
LONG PRAIRIE   CLOUDY    30  30 100 CALM      29.81R FOG
LITTLE FALLS   CLOUDY    32  30  93 W5        29.80S FOG     WCI  27
LITCHFIELD     CLOUDY    34  30  86 NW8       29.82S WCI  27
BUFFALO        CLOUDY    32  31  96 W7        29.81S FOG     WCI  26
MAPLE LAKE     CLOUDY    33  32  98 W6        29.81F FOG     WCI  27
HUTCHINSON     CLOUDY    33  31  92 W7        29.82F WCI  27
$$
MNZ037-044-045-052-053-231300-
   East Central Minnesota

CITY           SKY/WX    TMP DP  RH WIND       PRES   REMARKS
PRINCETON      CLOUDY    34  34 100 CALM      29.80S FOG
MORA           CLOUDY    32  32 100 CALM      29.79S
CAMBRIDGE      CLOUDY    36  34  93 W3        29.77S FOG
RUSH CITY      CLOUDY    32  32 100 CALM      29.78F FOG
MOOSE LAKE     CLOUDY    34  32  93 CALM      29.74F
HINCKLEY       CLOUDY    34  34 100 CALM      29.77F FOG
CLOQUET        CLOUDY    34  34 100 NW5       29.75S WCI  30
MCGREGOR       CLOUDY    32  32 100 CALM      29.77S
$$
MNZ071>073-080-081-089-090-097-098-231300-
   Southwest Minnesota

CITY           SKY/WX    TMP DP  RH WIND       PRES   REMARKS
MONTEVIDEO     CLOUDY    34  34 100 N7        29.86R WCI  28
GRANITE FALLS  CLOUDY    34  31  90 NW13      29.86S WCI  25
CANBY          CLOUDY    33  30  90 CALM      29.85F
MARSHALL       CLOUDY    32  29  88 NW8       29.84S WCI  25
REDWOOD FALLS  CLOUDY    34  28  79 NW8       29.83S WCI  27
OLIVIA         CLOUDY    34  32  93 NW7       29.83S WCI  28
PIPESTONE      CLOUDY    30  28  93 NW6       29.82S WCI  24
WINDOM         CLOUDY    34  28  80 NW9       29.82S WCI  26
WORTHINGTON    CLOUDY    31  28  89 N9        29.83S WCI  23
JACKSON        CLOUDY    32  27  80 NW13G18   29.83S WCI  22
TRACY          CLOUDY    33  31  92 NW6       29.83S WCI  27
SLAYTON        CLOUDY    31  29  94 NW9       29.83R WCI  22
$$
MNZ065>067-074>077-082>085-091>093-231300-
   South Central Minnesota

CITY           SKY/WX    TMP DP  RH WIND       PRES   REMARKS
MANKATO        CLOUDY    32  30  92 W6        29.83S WCI  26
NEW ULM        CLOUDY    32  30  93 NW8       29.82F WCI  25
ST JAMES       CLOUDY    32  30  93 NW8       29.84S WCI  25
FAIRMONT       CLOUDY    33  28  81 NW7       29.83F WCI  27
GLENCOE        CLOUDY    33  33 100 W8        29.81S FOG     WCI  26
OWATONNA       CLOUDY    32  30  93 W6        29.81F FOG     WCI  26
WASECA         CLOUDY    32  32 100 W6        29.83S FOG     WCI  26
ALBERT LEA     CLOUDY    32  32 100 CALM      29.81S
$$
MNZ078>079-086>088-094>096-231300-
   Southeast Minnesota

CITY           SKY/WX    TMP DP  RH WIND       PRES   REMARKS
ROCHESTER      CLOUDY    31  31 100 W9        29.79S FOG     WCI  23
6HR MIN TEMP:  31; 6HR MAX TEMP:  32; 6HR PCP: TRACE;

RED WING       CLOUDY    34  32  93 CALM      29.80S FOG
STANTON        LGT SNOW  33  32  94 W3        29.80S
DODGE CENTER   LGT SNOW  30  30 100 CALM      29.80S
WINONA         CLOUDY    34  32  93 NW5       29.80F FOG     WCI  30
AUSTIN         CLOUDY    32  30  93 W3        29.80F FOG
PRESTON        CLOUDY    31  30  95 NW8       29.80R FOG     WCI  24
$$
ABBREVIATIONS USED IN REMARKS
   TC - TEMPERATURES IN CELSIUS
  WCI - WIND CHILL INDEX
   HX - HEAT INDEX
  VSB - VISIBILITY
$$



USA.gov is the U.S. government's official web portal to all federal, state and local government web resources and services.